Tracking 35035 objects as of 16-Aug-2026
HD Live streaming from Space Station
objects crossing your sky now

INNOSAT-3

Track INNOSAT-3 now!
10-day predictions
INNOSAT-3 is classified as:


NORAD ID: 64894
Int'l Code: 2025-155U
Launch date: July 25, 2025
Source: (TBD)
Launch site: VOSTOCHNY COSMODROME (VOSTO)

Uplink (MHz):
Downlink (MHz): 436.436
Beacon (MHz):
Mode: 9k6 GFSK
Call sign: RS92S0
Status: Active

Your satellite tracking list
Your tracking list is empty




NASA's NSSDC Master Catalog

Two Line Element Set (TLE):
1 64894U 25155U   26228.57172458  .00032651  00000-0  62270-3 0  9995
2 64894  97.4535 201.7246 0003200  19.4203 340.7169 15.48096255 90297
Source of the keplerian elements: AFSPC